GEESAT 6-04

Satellite information

Favourite Embed

Satellite Type and Status

PAYLOADIN ORBIT

Key statistics

Satellite GEESAT 6-04 at a glance.

Uptime

26

Days in orbit

Revolutions

≈ 14.9

Per day

Orbit

LEO

Low Earth Orbit

Inclination

50.0

Latest

Satellite identification and parameters

Extended collection of information and parameters for GEESAT 6-04.

Object identification

Identified? True

Debris? False

Object name: GEESAT 6-04

International designator: 2025-214E

Object number (NORAD): 65716

Object ID (CCSDS): 65716

Country: PEOPLES REPUBLIC OF CHINA (PRC)

Current information (Y/N): Y

Orbital parameters

Period: 96.867 minutes

Inclination: 49.987 deg

SMA: 6986.771 km

Apoapsis: 616.497 km

Periapsis: 600.774 km

RAAN: 343.1039 deg

Eccentricy: 0.00112519

Argument of periapsis: 42.4774 deg

Mean anomaly: 317.7035 deg

Mean motion: 14.86579116 rev/day

Mean motion (dot): 0.00005306 rev/day2

B* drag term: 0.00061727442 1/REarth

Two-line elements (TLE)

Creation date: Oct. 20, 2025, 2:10 a.m.

Reference frame: TEME

Reference center: EARTH

Epoch: Oct. 19, 2025, 8:27 p.m. UTC

TLE line 0: 0 GEESAT 6-04

TLE line 1: 1 65716U 25214E 25292.85273134 .00005306 00000-0 61727-3 0 9992

TLE line 2: 2 65716 49.9870 343.1039 0011252 42.4774 317.7035 14.86579116 3812

Live tracking on map

Real-time ground track for satellite GEESAT 6-04.

In-orbit conjunctions

There are no conjunctions computed for GEESAT 6-04, at the moment. Check back to stay up to date, as we update our databases every day.

Go to all conjunctions

Associated space launch

12 LEO communications satellites for Chinese car manufacturer Geely Automotive for testing autonomous driving/inter-vehicle communication services. They also carry payloads for ocean observation.

GEESAT 6-04 was lifted into orbit during the mission ‘Smart Dragon 3 | Geely Constellation Group 06’, on board a Smart Dragon 3 space rocket.

The launch took place on Sept. 24, 2025, 7:56 a.m. from Oriental Spaceport mobile launch ship.

For more information about the launch, click the button.

Launch to space Smart Dragon 3 | Geely Constellation Group 06
Smart Dragon 3 | Geely Constellation Group 06

Agency: N/A

Status: Launch Successful

Launch date: Sept. 24, 2025, 7:56 a.m. UTC

Rocket: Smart Dragon 3

Launch pad: Oriental Spaceport mobile launch ship

Location: Sea Launch

...

Latest news about this satellite

News about space launch
China boosts broadband, IoT and weather satellite fleets with flurry of launches

A flurry of launch activity has seen China add to an Internet of Things constellation, loft new broadband satellites and boost its weather satellite fleet. The post China boosts broadband, IoT and weather satellite fleets with flurry of launches appeared...

News about space launch
Launch Roundup: Kuiper, Starlink, IMAP headline launch manifest

A busy slate of launches is planned for the last full week of September, including… The post Launch Roundup: Kuiper, Starlink, IMAP headline launch manifest appeared first on NASASpaceFlight.com.


Newsletter sign-up

Weekly statistics, charts and insights to help you stay on top of the space industry.